Location: 81360 Arifat, France
(43.7204°N, 2.3408°E)
Time: 22:00:35
(UTC+01:00)

Courier 1B Rocket - All Passes

Search period start: 10 December 2025 00:00
Search period end: 20 December 2025 00:00
Orbit: 920 x 1201 km, 28.3° (Epoch: 10 December)

Date Brightness Start Highest point End Pass type
(mag) Time Alt. Az. Time Alt. Az. Time Alt. Az.
10 Dec - 00:57:47 10° SSW 01:02:33 19° S 01:07:08 10° SE night (unlit)
10 Dec - 02:50:02 10° SW 02:55:01 21° S 02:59:48 10° SE night (unlit)
10 Dec - 04:44:07 10° SW 04:47:20 14° SSW 04:50:28 10° S visible
10 Dec - 23:57:11 10° SSW 00:01:33 17° SSE 00:05:46 10° SE night (unlit)
11 Dec - 01:48:48 10° SW 01:54:03 22° S 01:59:03 10° SE night (unlit)
11 Dec - 03:42:11 10° SW 03:46:28 17° SSW 03:50:35 10° SSE visible
11 Dec - 22:57:02 10° S 23:00:32 14° SSE 23:03:58 10° SE night (unlit)
12 Dec - 00:47:42 10° SW 00:53:02 21° S 00:58:07 10° SE night (unlit)
12 Dec - 02:40:34 10° SW 02:45:32 20° S 02:50:16 10° SE night (unlit)
12 Dec - 04:36:08 10° SW 04:37:46 11° SSW 04:39:22 10° S visible
12 Dec - 21:58:13 10° SSE 21:59:32 10° SSE 22:00:50 10° SE night (unlit)
12 Dec - 23:46:48 10° SSW 23:51:59 20° S 23:56:58 10° SE night (unlit)
13 Dec - 01:39:09 10° SW 01:44:32 22° S 01:49:41 10° SE night (unlit)
13 Dec - 03:33:15 10° SW 03:36:54 15° SSW 03:40:27 10° SSE night (unlit)
13 Dec - 22:46:10 10° SSW 22:50:56 18° SSE 22:55:34 10° SE night (unlit)
14 Dec - 00:37:52 10° SW 00:43:30 23° S 00:48:53 10° SE night (unlit)
14 Dec - 02:31:18 10° SW 02:35:59 18° SSW 02:40:29 10° SSE night (unlit)
14 Dec - 21:45:59 10° S 21:49:53 15° SSE 21:53:44 10° SE visible
14 Dec - 23:36:46 10° SW 23:42:25 23° S 23:47:53 10° SE night (unlit)
15 Dec - 01:29:40 10° SW 01:35:00 21° S 01:40:07 10° SE night (unlit)
15 Dec - 03:24:58 10° SW 03:27:18 12° SSW 03:29:36 10° S night (unlit)
15 Dec - 20:46:52 10° S 20:48:52 11° SSE 20:50:51 10° SE visible
15 Dec - 22:35:51 10° SW 22:41:20 21° S 22:46:39 10° ESE night (unlit)
16 Dec - 00:28:13 10° SW 00:33:57 23° S 00:39:27 10° SE night (unlit)
16 Dec - 02:22:18 10° SW 02:26:24 16° SSW 02:30:22 10° SSE night (unlit)
16 Dec - 21:35:15 10° SSW 21:40:14 18° SSE 21:45:10 10° SE visible
16 Dec - 23:26:57 10° SW 23:32:52 24° S 23:38:34 10° SE night (unlit)
17 Dec - 01:20:21 10° WSW 01:25:25 19° SSW 01:30:18 10° SSE night (unlit)
17 Dec - 20:35:05 10° SSW 20:39:11 15° SSE 20:43:15 10° SE visible
17 Dec - 22:25:52 10° SW 22:31:44 23° S 22:37:29 10° SE visible
18 Dec - 00:18:44 10° WSW 00:24:22 22° S 00:29:50 10° SE night (unlit)
18 Dec - 02:13:50 10° SW 02:16:46 13° SSW 02:19:37 10° S night (unlit)
18 Dec - 19:35:58 10° S 19:38:09 11° SSE 19:40:21 10° SE visible
18 Dec - 21:25:01 10° SW 21:30:37 22° SSE 21:36:10 10° ESE visible
18 Dec - 23:17:19 10° SW 23:23:17 24° S 23:29:04 10° SE night (unlit)
19 Dec - 01:11:19 10° SW 01:15:48 17° SSW 01:20:08 10° SSE night (unlit)
19 Dec - 20:24:27 10° SSW 20:29:31 19° SSE 20:34:34 10° ESE visible
19 Dec - 22:16:06 10° SW 22:22:09 25° S 22:28:06 10° SE visible
